Weather History for Hartford, CT

Change the Weather History Date:

Wednesday, February 13, 2013

  Actual Average Record
Temperature  
Mean Temperature 38 °F -  
Max Temperature 41 °F 35 °F 59 °F (1937)
Min Temperature 35 °F 16 °F -7 °F (1979)
Degree Days  
Heating Degree Days 27    
Moisture  
Dew Point 22 °F    
Average Humidity 55    
Maximum Humidity 67    
Minimum Humidity 43    
Precipitation  
Precipitation 0.00 in - - ()
Sea Level Pressure  
Sea Level Pressure 29.82 in    
Wind  
Wind Speed 5 mph (NNW)    
Max Wind Speed 9 mph    
Max Gust Speed -    
Visibility 10 miles    
Events      
Averages and records for this station are not official NWS values.
T = Trace of Precipitation, MM = Missing Value Source: NWS Daily Summary

Daily Weather History Graph

Daily Weather History Graph

Search for Another Location

Airport:

Trip Planner

Search our weather history database for the weather conditions in past years. The results will help you decide how hot, cold, wet, or windy it might be!

Date:

Astronomy

Feb. 13, 2013 Rise Set
Actual Time 6:48 AM EST 5:21 PM EST
Civil Twilight 6:19 AM EST 5:50 PM EST
Nautical Twilight 5:47 AM EST 6:23 PM EST
Astronomical Twilight 5:14 AM EST 6:55 PM EST
Moon 8:12 AM EST (2/13) 9:26 PM EST (2/13)
Length of Visible Light 11h 30m
Length of Day
10h 33m
Waxing Crescent, 13% of the Moon is Illuminated
Feb 13
Waxing Crescent
Feb 17
First Quarter
Feb 25
Full
Mar 4
Last Quarter
Mar 11
New

Hourly Weather History & Observations

Time (EST) Temp. Windchill Dew Point Humidity Pressure Visibility Wind Dir Wind Speed Gust Speed Precip Events Conditions
12:53 AM 37.0 °F 30.4 °F 21.9 °F 54% 29.89 in 10.0 mi NNW 9.2 mph - N/A   Overcast
1:53 AM 36.0 °F 32.1 °F 21.0 °F 55% 29.90 in 10.0 mi WNW 4.6 mph - N/A   Overcast
2:53 AM 35.1 °F 30.1 °F 19.9 °F 54% 29.92 in 10.0 mi West 5.8 mph - N/A   Overcast
3:53 AM 35.1 °F 31.0 °F 21.0 °F 57% 29.91 in 10.0 mi West 4.6 mph - N/A   Overcast
4:53 AM 35.1 °F 31.0 °F 21.0 °F 57% 29.91 in 10.0 mi West 4.6 mph - N/A   Overcast
5:53 AM 35.1 °F 30.1 °F 21.9 °F 59% 29.89 in 10.0 mi NNW 5.8 mph - N/A   Overcast
6:53 AM 35.1 °F 29.3 °F 21.9 °F 59% 29.88 in 10.0 mi NW 6.9 mph - N/A   Overcast
7:53 AM 35.1 °F 31.0 °F 21.9 °F 59% 29.90 in 10.0 mi WNW 4.6 mph - N/A   Overcast
8:53 AM 36.0 °F - 21.9 °F 57% 29.90 in 10.0 mi Calm Calm - N/A   Overcast
9:53 AM 37.9 °F 35.5 °F 21.9 °F 53% 29.88 in 10.0 mi North 3.5 mph - N/A   Partly Cloudy
10:53 AM 39.0 °F 35.7 °F 21.0 °F 49% 29.87 in 10.0 mi North 4.6 mph - N/A   Partly Cloudy
11:53 AM 39.0 °F - 21.0 °F 49% 29.86 in 10.0 mi Calm Calm - N/A   Clear
12:53 PM 39.0 °F 34.8 °F 21.9 °F 50% 29.84 in 10.0 mi SSE 5.8 mph - N/A   Clear
1:53 PM 39.9 °F 36.7 °F 21.9 °F 49% 29.80 in 10.0 mi SE 4.6 mph - N/A   Clear
2:53 PM 41.0 °F 39.0 °F 21.0 °F 45% 29.76 in 10.0 mi SE 3.5 mph - N/A   Clear
3:53 PM 41.0 °F - 19.9 °F 43% 29.76 in 10.0 mi Calm Calm - N/A   Clear
4:53 PM 39.9 °F 37.8 °F 21.0 °F 47% 29.74 in 10.0 mi SSE 3.5 mph - N/A   Clear
5:53 PM 37.9 °F - 23.0 °F 55% 29.73 in 10.0 mi Calm Calm - N/A   Clear
6:53 PM 36.0 °F 33.3 °F 25.0 °F 64% 29.72 in 10.0 mi ENE 3.5 mph - N/A   Mostly Cloudy
7:53 PM 36.0 °F 33.3 °F 26.1 °F 67% 29.72 in 10.0 mi SE 3.5 mph - N/A   Overcast
8:53 PM 36.0 °F - 26.1 °F 67% 29.72 in 10.0 mi Calm Calm - N/A   Scattered Clouds
9:53 PM 37.0 °F 31.6 °F 24.1 °F 59% 29.72 in 10.0 mi North 6.9 mph - N/A   Overcast
10:53 PM 37.0 °F 31.6 °F 23.0 °F 57% 29.72 in 10.0 mi NNW 6.9 mph - N/A   Overcast
11:53 PM 36.0 °F 30.3 °F 24.1 °F 62% 29.73 in 10.0 mi North 6.9 mph - N/A   Overcast